Wind_Speed
14 15 14 14 14 14 15 15 15 15 15 15 15 16 16 17 17 17 18 19 19 19 20 21 21 21 21 21 21 21 21 21 20 20 20 20 19 20 20 19 19 19 19 20
15 15 15 15 15 15 15 15 15 16 15 16 16 17 17 18 18 18 19 20 20 20 21 21 22 22 22 22 22 22 21 21 21 20 20 20 20 20 21 21 21 21 21 21
16 16 16 16 16 17 17 17 17 17 17 18 18 18 18 19 19 19 20 20 20 21 21 22 22 22 22 22 23 22 22 22 21 20 20 21 21 22 22 22 22 23 22 22
18 18 18 17 17 18 18 18 19 18 18 19 19 19 20 20 20 20 20 20 20 21 21 22 22 23 23 22 22 22 22 23 23 22 22 22 22 22 22 22 22 23 24 23
19 19 19 18 19 19 19 19 19 19 19 20 20 20 20 21 21 21 21 21 21 21 21 22 22 22 22 22 22 22 23 23 23 23 23 23 22 23 23 23 23 23 24 24
20 20 19 19 20 20 19 19 19 20 20 21 21 21 21 21 22 22 22 22 22 22 22 22 22 22 22 22 22 23 23 24 23 23 23 23 23 23 23 24 24 24 25 25
20 21 21 20 20 21 21 20 20 20 21 21 22 22 22 22 22 22 23 23 23 23 23 23 22 22 22 22 23 23 24 24 24 24 24 24 24 24 24 25 26 26 26 27
22 22 22 21 21 22 22 22 22 22 22 22 22 22 23 23 23 23 23 23 23 24 24 23 23 23 23 23 24 24 24 25 25 25 25 25 25 26 26 26 27 27 28 29
22 23 23 23 23 23 23 23 23 23 23 23 24 24 25 25 24 24 24 24 24 24 24 24 24 24 24 24 25 24 25 25 26 26 26 27 27 27 27 27 28 28 29 30
23 23 23 23 23 24 24 24 24 24 24 24 25 25 25 25 24 24 24 24 24 24 24 24 24 24 24 24 25 25 26 26 26 27 28 28 28 28 28 28 28 29 29 30
24 24 24 24 24 24 24 25 25 25 24 25 25 24 24 24 25 25 25 25 25 24 24 24 24 24 25 25 25 26 26 27 27 27 28 29 30 30 29 29 30 30 31 31
24 24 24 24 24 24 24 24 24 24 24 24 24 25 25 25 25 26 25 25 25 26 26 26 26 26 26 26 26 26 26 27 27 27 28 29 30 30 30 30 30 30 30 31
24 24 24 24 25 25 24 24 24 24 24 24 24 25 25 26 27 27 26 26 26 27 27 27 27 27 27 27 27 27 27 28 27 28 28 29 29 30 30 30 30 30 30 31
24 24 24 25 25 25 24 24 25 25 25 25 25 25 26 26 27 27 26 26 26 27 27 27 28 28 29 29 28 29 29 30 29 29 29 29 29 29 30 30 30 30 31 31
24 24 24 24 25 25 25 25 25 25 26 26 26 26 26 26 26 26 26 26 26 27 28 28 29 29 30 30 30 30 30 30 30 30 29 29 29 29 29 30 30 31 31 31
24 24 24 24 25 25 26 26 26 27 27 27 27 27 27 28 28 27 27 26 26 27 27 28 28 29 30 30 30 30 30 30 29 29 30 29 29 29 30 30 30 30 31 31
25 25 25 25 26 27 27 27 28 28 28 27 27 27 27 27 27 27 26 26 26 26 27 27 28 29 29 29 29 29 29 29 29 29 30 30 29 29 29 30 30 31 31 31
26 26 27 27 27 28 28 28 28 27 26 26 26 27 27 27 27 27 26 26 26 26 28 29 29 29 29 29 29 29 29 28 28 29 30 30 29 29 30 30 30 30 30 30
26 27 27 27 28 28 27 27 26 26 26 26 26 26 27 27 27 27 26 26 27 28 28 28 29 29 29 29 29 30 29 29 28 28 28 29 29 29 29 29 30 30 31 31
26 26 27 27 26 25 25 25 25 26 26 26 26 26 26 26 27 27 27 27 28 28 29 29 30 30 30 30 29 29 29 29 29 29 29 29 29 29 30 30 30 31 31 32
25 25 25 25 24 24 24 24 24 24 25 25 25 25 26 26 27 27 27 28 28 29 29 29 29 29 29 29 29 29 29 29 29 29 29 29 29 30 30 30 31 31 31 32
24 24 24 24 24 24 24 24 24 24 24 25 25 26 26 26 27 27 28 28 29 29 29 29 29 29 29 29 29 29 29 29 29 29 29 29 30 30 31 31 31 31 31 32
23 24 24 24 24 24 25 25 24 24 24 25 26 26 26 27 27 27 28 28 29 28 29 29 29 28 28 28 29 29 29 29 29 29 29 29 30 30 31 31 31 31 31 32
23 24 24 24 24 24 24 24 23 24 24 25 25 26 26 26 27 27 27 27 27 27 27 28 27 27 27 27 27 27 27 27 28 28 28 28 29 30 31 31 31 32 32 32
22 23 23 23 23 23 23 23 23 23 24 25 25 25 26 26 26 26 26 26 26 27 27 27 27 27 26 26 26 26 26 26 27 27 27 28 29 30 31 31 31 31 31 31
22 22 23 23 23 23 23 23 24 24 24 25 24 25 25 25 26 26 26 26 26 25 25 25 25 26 26 26 26 26 26 27 27 28 28 28 29 29 30 31 31 31 30 31
22 22 23 23 23 23 23 24 24 24 25 25 25 25 25 25 26 26 26 26 25 25 25 25 26 26 26 26 26 26 27 27 27 27 28 28 29 29 29 29 29 29 29 29
Wind_Direction
272 272 271 269 270 272 274 277 275 279 280 282 283 285 285 286 288 289 290 291 290 288 287 287 286 286 286 286 287 287 286 285 283 278 275 276 275 275 274 273 271 271 269 269
271 271 272 270 271 272 275 278 278 278 280 281 281 284 285 286 287 289 290 291 291 290 289 288 287 286 286 285 286 285 284 284 284 281 276 276 275 274 274 273 271 270 269 268
272 273 272 271 273 274 275 278 279 280 280 280 280 281 283 285 286 287 290 291 292 291 290 287 286 285 284 284 284 283 282 282 282 279 277 278 275 274 273 274 274 272 269 268
271 271 271 276 277 276 277 277 278 278 278 279 280 281 283 284 286 288 290 292 293 293 292 289 287 284 283 282 282 282 281 280 280 277 275 276 276 275 274 274 273 271 270 269
272 272 274 274 276 278 278 277 277 277 278 280 282 282 282 283 285 286 287 289 291 291 291 291 289 287 283 280 280 280 281 280 280 277 275 274 275 276 275 274 274 273 272 271
270 271 274 275 275 277 278 278 278 279 279 279 281 281 282 283 284 286 287 289 289 290 289 289 289 288 285 282 280 279 279 279 278 276 276 275 275 276 275 273 275 274 273 272
270 272 275 277 277 277 278 281 281 281 281 280 280 280 281 282 284 286 288 289 288 289 289 288 287 287 286 285 283 281 279 277 276 275 275 275 275 274 275 274 274 274 273 273
270 272 276 278 277 278 280 280 281 281 281 281 281 281 281 281 283 285 286 287 288 288 288 287 286 286 286 286 286 284 281 278 275 274 274 274 274 275 275 275 274 274 274 274
270 272 275 276 277 279 279 280 280 281 281 280 281 281 282 283 284 285 285 285 286 287 287 286 286 286 286 286 285 284 284 281 277 275 274 274 274 274 276 277 276 276 275 275
271 273 275 275 275 277 278 279 280 280 280 281 282 283 284 284 284 285 285 285 285 285 285 285 286 287 287 287 285 284 284 283 280 277 275 273 274 275 276 277 277 277 277 276
271 273 274 274 275 276 278 280 281 281 281 281 283 285 286 286 285 285 284 283 283 283 284 284 285 286 286 287 286 285 284 282 281 278 276 275 275 277 277 278 278 277 277 275
270 271 272 273 275 276 278 280 281 282 283 283 283 284 285 286 287 287 284 281 280 281 281 283 284 285 286 286 286 286 285 284 282 281 279 277 278 278 278 279 279 279 278 277
269 271 273 274 274 276 278 279 280 282 283 283 284 285 285 286 288 287 285 283 281 280 280 282 283 284 285 286 287 286 284 283 282 282 282 281 281 281 279 279 279 278 278 277
270 272 273 274 275 276 278 279 280 281 282 283 283 284 284 287 288 288 286 285 282 280 280 281 282 283 284 285 286 286 285 284 284 285 285 283 282 282 281 281 279 279 278 278
271 273 274 275 275 276 277 279 280 280 280 281 282 282 283 285 286 287 287 286 284 281 280 281 282 284 286 287 288 288 287 286 285 286 285 284 284 283 282 282 282 281 279 279
272 274 276 276 276 276 277 279 280 280 280 280 281 281 283 285 286 286 286 286 286 283 282 283 283 286 288 289 290 290 288 286 285 285 285 285 285 284 283 283 283 282 282 281
271 274 275 276 277 278 279 280 280 280 280 281 281 281 283 285 286 287 286 286 287 287 285 285 286 288 290 290 290 290 290 287 284 283 284 284 284 284 285 285 285 284 282 282
270 273 275 276 277 279 281 280 280 280 281 282 284 284 284 285 286 287 286 286 287 288 287 286 287 289 289 290 291 291 290 289 287 284 283 284 284 285 286 287 286 285 284 282
272 275 276 278 279 281 282 281 280 280 281 283 285 286 286 286 287 288 287 287 288 289 290 288 287 289 290 290 291 291 290 288 288 287 286 285 285 286 287 287 287 287 286 284
275 276 277 278 279 280 280 280 279 280 281 283 284 286 287 288 288 289 288 288 289 291 291 290 289 290 291 291 291 291 290 288 287 287 288 287 287 287 288 288 289 288 287 285
275 276 277 276 276 278 279 280 281 282 282 283 284 286 287 288 288 289 289 288 289 290 291 291 290 291 292 292 291 290 289 288 288 286 286 287 288 289 290 289 289 288 288 287
273 274 274 274 276 278 280 282 282 282 282 283 285 286 288 290 291 290 290 290 290 290 291 291 291 293 293 293 293 291 290 289 288 287 287 287 288 289 289 290 289 289 289 288
273 274 274 275 277 279 281 282 283 283 283 284 286 288 290 292 292 292 292 292 291 291 292 292 293 293 294 295 295 294 292 291 289 288 287 288 288 290 290 291 291 290 290 289
274 274 275 275 276 278 280 281 281 282 283 286 289 291 292 293 293 294 294 294 293 293 294 294 295 295 295 295 296 296 295 293 291 290 289 289 290 291 291 292 291 290 290 290
275 274 275 275 276 277 279 280 281 282 284 287 290 291 292 293 294 295 295 295 295 296 297 297 297 296 296 297 298 297 296 297 296 294 293 292 292 293 293 293 293 293 291 289
274 274 274 276 276 277 279 281 282 282 284 287 288 290 292 292 293 294 295 295 296 298 299 300 299 298 297 298 298 297 297 297 298 297 296 295 295 295 295 295 295 294 293 292
275 274 275 277 277 277 279 282 284 285 286 287 288 290 291 293 294 296 295 295 295 296 297 298 298 298 298 298 298 298 298 298 299 299 299 299 299 298 297 296 296 295 294 293
Height
5796 5795 5795 5795 5795 5795 5794 5794 5794 5795 5794 5793 5792 5791 5790 5789 5788 5787 5786 5785 5784 5783 5782 5781 5780 5779 5778 5776 5775 5773 5772 5771 5769 5769 5768 5767 5766 5766 5765 5765 5764 5764 5764 5763
5792 5791 5790 5790 5790 5790 5790 5789 5789 5789 5789 5788 5786 5786 5785 5784 5783 5782 5781 5780 5778 5777 5776 5775 5773 5772 5771 5770 5768 5767 5766 5765 5763 5762 5761 5761 5760 5760 5759 5758 5758 5758 5758 5757
5787 5786 5785 5786 5786 5785 5785 5785 5784 5784 5784 5782 5781 5780 5779 5778 5777 5776 5775 5774 5772 5771 5769 5768 5766 5765 5764 5763 5762 5761 5760 5759 5757 5756 5755 5754 5754 5753 5753 5752 5752 5751 5751 5751
5781 5781 5781 5783 5781 5780 5780 5779 5778 5777 5777 5776 5775 5774 5773 5772 5771 5770 5769 5768 5766 5765 5763 5761 5759 5758 5757 5756 5755 5754 5753 5752 5751 5750 5749 5748 5748 5747 5746 5746 5745 5744 5744 5744
5775 5775 5775 5776 5775 5774 5774 5773 5772 5771 5771 5770 5769 5768 5767 5766 5765 5764 5762 5761 5760 5758 5757 5755 5753 5751 5750 5749 5748 5747 5746 5745 5744 5743 5743 5742 5741 5740 5740 5739 5738 5737 5737 5736
5769 5769 5769 5771 5769 5768 5768 5767 5766 5765 5764 5763 5762 5762 5761 5759 5758 5757 5755 5754 5753 5751 5750 5748 5746 5744 5743 5741 5741 5740 5739 5738 5737 5736 5736 5735 5734 5733 5733 5732 5731 5730 5730 5729
5763 5762 5762 5763 5762 5762 5762 5762 5760 5758 5757 5756 5755 5755 5754 5752 5751 5749 5748 5747 5745 5744 5742 5741 5739 5738 5736 5734 5733 5732 5731 5730 5729 5729 5728 5727 5727 5726 5725 5724 5724 5723 5722 5721
5756 5756 5758 5756 5755 5755 5755 5753 5752 5750 5750 5749 5748 5747 5745 5744 5743 5742 5740 5739 5737 5736 5735 5733 5732 5730 5729 5727 5726 5724 5723 5722 5721 5720 5720 5719 5718 5718 5717 5716 5715 5714 5713 5712
5750 5751 5750 5748 5748 5747 5746 5745 5744 5743 5742 5741 5740 5739 5737 5736 5735 5733 5732 5731 5729 5728 5727 5725 5724 5722 5721 5720 5718 5716 5715 5713 5712 5711 5711 5710 5709 5709 5708 5707 5706 5705 5704 5703
5742 5742 5741 5741 5739 5739 5738 5737 5736 5735 5734 5733 5732 5730 5729 5728 5727 5725 5724 5722 5721 5720 5719 5717 5716 5714 5713 5711 5710 5708 5706 5705 5703 5702 5701 5700 5700 5699 5698 5697 5696 5695 5694 5693
5733 5734 5733 5732 5732 5731 5730 5729 5728 5727 5726 5725 5724 5722 5721 5720 5718 5717 5715 5714 5713 5712 5710 5709 5708 5706 5705 5703 5701 5700 5698 5696 5694 5693 5692 5691 5690 5689 5688 5687 5686 5685 5683 5682
5726 5725 5725 5725 5724 5723 5722 5721 5720 5719 5718 5717 5716 5714 5713 5712 5710 5708 5707 5705 5704 5703 5702 5700 5699 5697 5696 5694 5693 5691 5689 5687 5686 5684 5682 5681 5680 5679 5677 5676 5675 5674 5672 5671
5717 5717 5717 5717 5716 5715 5715 5714 5713 5712 5710 5709 5708 5706 5704 5703 5701 5699 5698 5696 5695 5694 5693 5691 5690 5689 5687 5685 5684 5682 5680 5678 5676 5674 5673 5671 5670 5668 5667 5666 5664 5663 5661 5660
5709 5709 5709 5708 5708 5707 5706 5706 5705 5704 5702 5701 5699 5698 5696 5694 5692 5690 5689 5687 5686 5685 5684 5682 5681 5679 5678 5676 5674 5672 5670 5668 5667 5665 5663 5661 5660 5658 5657 5655 5654 5652 5651 5649
5701 5701 5701 5700 5699 5699 5698 5697 5696 5695 5694 5692 5691 5689 5687 5686 5684 5682 5680 5678 5677 5676 5674 5673 5671 5670 5668 5666 5664 5662 5660 5658 5656 5655 5653 5652 5650 5648 5646 5645 5643 5642 5640 5639
5693 5693 5692 5692 5691 5690 5689 5688 5687 5686 5685 5684 5682 5681 5679 5677 5675 5673 5672 5670 5668 5667 5665 5663 5662 5660 5658 5656 5654 5652 5650 5648 5646 5645 5643 5641 5640 5638 5637 5635 5633 5631 5630 5628
5685 5685 5684 5684 5683 5682 5681 5680 5679 5677 5676 5675 5673 5671 5670 5668 5666 5665 5663 5661 5659 5658 5656 5654 5652 5650 5648 5646 5644 5642 5640 5638 5636 5634 5633 5631 5630 5628 5627 5625 5623 5621 5620 5618
5677 5677 5676 5675 5674 5673 5672 5671 5670 5668 5667 5666 5664 5662 5661 5659 5658 5656 5654 5652 5651 5649 5647 5645 5643 5641 5639 5637 5634 5632 5630 5628 5626 5625 5623 5621 5620 5618 5616 5614 5612 5611 5609 5608
5668 5668 5667 5667 5666 5665 5663 5662 5661 5660 5659 5657 5656 5654 5652 5651 5649 5647 5645 5644 5642 5640 5638 5636 5634 5631 5629 5627 5625 5623 5621 5619 5617 5615 5613 5611 5610 5608 5606 5604 5602 5600 5598 5597
5660 5660 5659 5658 5657 5656 5655 5654 5652 5651 5650 5649 5647 5646 5644 5642 5640 5638 5636 5635 5633 5631 5629 5626 5624 5622 5620 5618 5615 5613 5611 5609 5607 5605 5604 5602 5600 5598 5596 5594 5592 5590 5588 5586
5652 5651 5651 5650 5649 5648 5647 5646 5645 5644 5642 5641 5639 5637 5635 5633 5631 5629 5628 5626 5624 5622 5619 5617 5615 5612 5610 5608 5606 5603 5601 5599 5598 5596 5594 5592 5590 5588 5585 5583 5581 5579 5577 5575
5644 5643 5643 5642 5641 5641 5639 5638 5637 5636 5634 5633 5631 5629 5627 5625 5623 5621 5619 5617 5615 5612 5610 5608 5605 5603 5600 5598 5596 5594 5592 5589 5588 5586 5584 5582 5579 5577 5575 5573 5570 5568 5566 5564
5636 5635 5635 5634 5633 5633 5631 5630 5629 5628 5626 5625 5623 5621 5619 5617 5615 5613 5611 5608 5606 5603 5601 5599 5596 5594 5591 5589 5587 5584 5582 5579 5577 5575 5573 5571 5569 5567 5565 5562 5560 5558 5555 5553
5627 5627 5627 5626 5625 5625 5624 5622 5621 5620 5618 5617 5615 5613 5611 5609 5607 5604 5602 5599 5597 5595 5592 5590 5587 5585 5582 5580 5577 5575 5572 5570 5567 5565 5563 5561 5559 5556 5554 5551 5549 5546 5544 5542
5620 5619 5619 5618 5617 5617 5616 5615 5613 5612 5611 5609 5607 5605 5603 5601 5599 5596 5594 5592 5589 5586 5584 5581 5578 5576 5573 5571 5568 5566 5563 5561 5558 5556 5553 5551 5548 5546 5543 5540 5538 5535 5533 5530
5612 5611 5611 5610 5609 5609 5608 5607 5606 5604 5603 5601 5599 5597 5595 5593 5591 5589 5586 5584 5581 5578 5576 5573 5570 5568 5565 5563 5560 5558 5555 5552 5549 5547 5544 5541 5538 5536 5533 5530 5527 5524 5522 5519
5604 5604 5603 5602 5601 5600 5600 5599 5598 5596 5595 5593 5592 5590 5587 5585 5583 5581 5578 5575 5573 5570 5568 5565 5563 5560 5557 5555 5552 5549 5547 5544 5541 5538 5535 5532 5529 5525 5522 5519 5516 5514 5511 5508